When you browse on this site, cookies collect data to enhance your experience and personalize the content and advertising you see.
Visit our Privacy Policy to learn more. By continuing to use the site, you agree to this use of cookies and data.
  • en France
  • Liste des pays
  • À 7 jours
  • Température de l'eau
  • Carte satellitaire
  • Carte météo
  • Widgets météo
  • user-avatar
    Se connecter

    Météo par heure à Soscha

    Ce jour, 24 Février, Dimanche

    Heure Température Précipitation Vent Pression Humidité
    00:00 -16°C° 0 mm 3 m/s 759 mmHg 91%
    01:00 -16°C° 0 mm 3 m/s 759 mmHg 91%
    02:00 -16°C° 0 mm 3 m/s 759 mmHg 90%
    03:00 -16°C° 0 mm 3 m/s 758 mmHg 90%
    04:00 -16°C° 0 mm 3 m/s 758 mmHg 91%
    05:00 -16°C° 0 mm 3 m/s 758 mmHg 92%
    06:00 -15°C° 0 mm 3 m/s 758 mmHg 92%
    07:00 -14°C° 0 mm 3 m/s 758 mmHg 93%
    08:00 -13°C° 0 mm 3 m/s 757 mmHg 94%
    09:00 -12°C° 0 mm 3 m/s 757 mmHg 95%
    10:00 -10°C° 0 mm 3 m/s 757 mmHg 94%
    11:00 -9°C° 0 mm 3 m/s 757 mmHg 94%
    12:00 -8°C° 0 mm 3 m/s 757 mmHg 94%
    13:00 -7°C° 0 mm 3 m/s 756 mmHg 93%
    14:00 -6°C° 0 mm 3 m/s 756 mmHg 92%
    15:00 -5°C° 0 mm 3 m/s 756 mmHg 91%
    16:00 -5°C° 0 mm 3 m/s 756 mmHg 92%
    17:00 -5°C° 0 mm 3 m/s 755 mmHg 93%
    18:00 -4°C° 0 mm 2 m/s 755 mmHg 95%
    19:00 -4°C° 0 mm 2 m/s 755 mmHg 95%
    20:00 -4°C° 0 mm 2 m/s 755 mmHg 95%
    21:00 -4°C° 0 mm 2 m/s 754 mmHg 96%
    22:00 -5°C° 0.1 mm 3 m/s 754 mmHg 96%
    23:00 -4°C° 0.1 mm 3 m/s 753 mmHg 96%

    Demain, 25 Février, Lundi

    Heure Température Précipitation Vent Pression Humidité
    00:00 -4°C° 0.1 mm 3 m/s 753 mmHg 96%
    01:00 -2°C° 0.1 mm 3 m/s 752 mmHg 96%
    02:00 -2°C° 0.1 mm 4 m/s 751 mmHg 96%
    03:00 -2°C° 0.1 mm 4 m/s 751 mmHg 96%
    04:00 -2°C° 0.1 mm 4 m/s 750 mmHg 95%
    05:00 -2°C° 0.1 mm 5 m/s 749 mmHg 94%
    06:00 -2°C° 0.1 mm 5 m/s 748 mmHg 93%
    07:00 -2°C° 0.4 mm 5 m/s 747 mmHg 93%
    08:00 -2°C° 0.4 mm 5 m/s 747 mmHg 93%
    09:00 -2°C° 0.4 mm 5 m/s 746 mmHg 93%
    10:00 -2°C° 0.3 mm 5 m/s 745 mmHg 95%
    11:00 -1°C° 0.3 mm 4 m/s 745 mmHg 97%
    12:00 -1°C° 0.3 mm 4 m/s 744 mmHg 99%
    13:00 -1°C° 0.1 mm 4 m/s 744 mmHg 99%
    14:00 -1°C° 0.1 mm 4 m/s 744 mmHg 99%
    15:00 -1°C° 0.1 mm 4 m/s 743 mmHg 99%
    16:00 -1°C° 0 mm 4 m/s 743 mmHg 97%
    17:00 -2°C° 0 mm 4 m/s 743 mmHg 94%
    18:00 -1°C° 0 mm 3 m/s 743 mmHg 92%
    19:00 -1°C° 0.1 mm 3 m/s 743 mmHg 93%
    20:00 -1°C° 0.1 mm 3 m/s 743 mmHg 94%
    21:00 -1°C° 0.1 mm 3 m/s 743 mmHg 95%
    22:00 -1°C° 0.1 mm 3 m/s 742 mmHg 95%
    23:00 -1°C° 0.1 mm 3 m/s 742 mmHg 95%

    Après-demain, 26 Février, Mardi

    Heure Température Précipitation Vent Pression Humidité
    00:00 -2°C° 0.1 mm 3 m/s 742 mmHg 95%
    01:00 -2°C° 0 mm 3 m/s 742 mmHg 96%
    02:00 -4°C° 0 mm 3 m/s 742 mmHg 96%
    03:00 -4°C° 0 mm 3 m/s 741 mmHg 96%
    04:00 -4°C° 0.1 mm 3 m/s 741 mmHg 96%
    05:00 -4°C° 0.1 mm 3 m/s 741 mmHg 96%
    06:00 -4°C° 0.1 mm 3 m/s 741 mmHg 96%
    07:00 -2°C° 0.1 mm 3 m/s 741 mmHg 96%
    08:00 -2°C° 0.1 mm 3 m/s 741 mmHg 96%
    09:00 -2°C° 0.1 mm 3 m/s 741 mmHg 96%
    10:00 -1°C° 0.1 mm 3 m/s 740 mmHg 97%
    11:00 -1°C° 0.1 mm 3 m/s 740 mmHg 98%
    12:00 -1°C° 0.1 mm 3 m/s 740 mmHg 99%
    13:00 -1°C° 0.1 mm 3 m/s 740 mmHg 98%
    14:00 -1°C° 0.1 mm 3 m/s 740 mmHg 98%
    15:00 0°C° 0.1 mm 3 m/s 740 mmHg 97%
    16:00 -1°C° 0 mm 3 m/s 740 mmHg 95%
    17:00 -1°C° 0 mm 3 m/s 740 mmHg 92%
    18:00 -2°C° 0 mm 3 m/s 741 mmHg 89%
    19:00 -2°C° 0 mm 3 m/s 741 mmHg 90%
    20:00 -2°C° 0 mm 3 m/s 741 mmHg 92%
    21:00 -2°C° 0 mm 3 m/s 742 mmHg 93%
    22:00 -3°C° 0.1 mm 4 m/s 742 mmHg 93%
    23:00 -3°C° 0.1 mm 4 m/s 743 mmHg 93%

    27 Février, Mercredi

    Heure Température Précipitation Vent Pression Humidité
    00:00 -2°C° 0.1 mm 5 m/s 743 mmHg 93%
    01:00 -4°C° 0.1 mm 5 m/s 743 mmHg 92%
    02:00 -4°C° 0.1 mm 6 m/s 744 mmHg 91%
    03:00 -4°C° 0.1 mm 6 m/s 744 mmHg 90%
    04:00 -5°C° 0.1 mm 6 m/s 745 mmHg 89%
    05:00 -6°C° 0.1 mm 6 m/s 745 mmHg 89%
    06:00 -8°C° 0.1 mm 6 m/s 746 mmHg 88%
    07:00 -9°C° 0 mm 6 m/s 746 mmHg 88%
    08:00 -10°C° 0 mm 5 m/s 747 mmHg 88%
    09:00 -10°C° 0 mm 5 m/s 748 mmHg 88%
    10:00 -11°C° 0 mm 5 m/s 748 mmHg 88%
    11:00 -11°C° 0 mm 5 m/s 748 mmHg 88%
    12:00 -10°C° 0 mm 4 m/s 748 mmHg 87%
    13:00 -10°C° 0 mm 4 m/s 748 mmHg 87%
    14:00 -10°C° 0 mm 4 m/s 748 mmHg 87%
    15:00 -10°C° 0 mm 4 m/s 748 mmHg 87%
    16:00 -10°C° 0 mm 3 m/s 748 mmHg 88%
    17:00 -10°C° 0 mm 3 m/s 748 mmHg 89%
    18:00 -9°C° 0 mm 2 m/s 747 mmHg 90%
    19:00 -10°C° 0 mm 2 m/s 747 mmHg 91%
    20:00 -12°C° 0 mm 2 m/s 746 mmHg 92%
    21:00 -12°C° 0 mm 2 m/s 746 mmHg 93%
    22:00 -12°C° 0 mm 2 m/s 745 mmHg 93%
    23:00 -12°C° 0 mm 3 m/s 745 mmHg 93%

    28 Février, Jeudi

    Heure Température Précipitation Vent Pression Humidité
    00:00 -10°C° 0 mm 3 m/s 744 mmHg 92%
    01:00 -10°C° 0.1 mm 3 m/s 743 mmHg 93%
    02:00 -9°C° 0.1 mm 3 m/s 743 mmHg 94%
    03:00 -8°C° 0.1 mm 3 m/s 742 mmHg 95%
    04:00 -8°C° 0.1 mm 3 m/s 741 mmHg 95%
    05:00 -7°C° 0.1 mm 3 m/s 741 mmHg 95%
    06:00 -7°C° 0.1 mm 3 m/s 740 mmHg 95%
    07:00 -6°C° 0 mm 3 m/s 740 mmHg 95%
    08:00 -5°C° 0 mm 3 m/s 740 mmHg 95%
    09:00 -5°C° 0 mm 3 m/s 739 mmHg 95%
    10:00 -4°C° 0 mm 3 m/s 739 mmHg 95%
    11:00 -2°C° 0 mm 3 m/s 738 mmHg 94%
    12:00 -1°C° 0 mm 3 m/s 738 mmHg 94%
    13:00 -1°C° 0 mm 3 m/s 738 mmHg 92%
    14:00 -1°C° 0 mm 3 m/s 737 mmHg 91%
    15:00 -1°C° 0 mm 3 m/s 737 mmHg 89%
    16:00 -1°C° 0 mm 3 m/s 736 mmHg 91%
    17:00 -2°C° 0 mm 3 m/s 736 mmHg 92%
    18:00 -2°C° 0 mm 2 m/s 736 mmHg 93%
    19:00 -3°C° 0 mm 2 m/s 735 mmHg 93%
    20:00 -3°C° 0 mm 2 m/s 735 mmHg 94%
    21:00 -4°C° 0 mm 2 m/s 735 mmHg 94%
    22:00 -4°C° 0 mm 2 m/s 734 mmHg 95%
    23:00 -2°C° 0 mm 1 m/s 734 mmHg 95%

    1 Mars, Vendredi

    Heure Température Précipitation Vent Pression Humidité
    00:00 -2°C° 0 mm 1 m/s 734 mmHg 95%
    01:00 -3°C° 0 mm 1 m/s 734 mmHg 95%
    02:00 -3°C° 0 mm 1 m/s 733 mmHg 96%
    03:00 -5°C° 0 mm 0 m/s 733 mmHg 96%
    04:00 -5°C° 0 mm 0 m/s 733 mmHg 96%
    05:00 -5°C° 0 mm 0 m/s 733 mmHg 96%
    06:00 -5°C° 0 mm 0 m/s 733 mmHg 96%
    07:00 -5°C° 0 mm 0 m/s 733 mmHg 96%
    08:00 -4°C° 0 mm 0 m/s 733 mmHg 95%
    09:00 -4°C° 0 mm 0 m/s 734 mmHg 95%
    10:00 -2°C° 0 mm 1 m/s 734 mmHg 96%
    11:00 -1°C° 0 mm 1 m/s 734 mmHg 96%
    12:00 0°C° 0 mm 1 m/s 734 mmHg 96%
    13:00 -2°C° 0 mm 2 m/s 735 mmHg 96%
    14:00 -1°C° 0 mm 2 m/s 735 mmHg 96%
    15:00 -1°C° 0 mm 2 m/s 735 mmHg 95%
    16:00 -1°C° 0 mm 2 m/s 736 mmHg 95%
    17:00 -2°C° 0 mm 2 m/s 736 mmHg 94%
    18:00 -2°C° 0 mm 2 m/s 737 mmHg 93%
    19:00 -3°C° 0 mm 2 m/s 737 mmHg 94%
    20:00 -3°C° 0 mm 2 m/s 737 mmHg 94%
    21:00 -4°C° 0 mm 2 m/s 738 mmHg 95%
    22:00 -4°C° 0 mm 2 m/s 738 mmHg 95%
    23:00 -4°C° 0 mm 2 m/s 738 mmHg 96%
    Voir plus